SCP
0 0 0 0 0 0 0 0 0 0 0 0 0 0 0 0 0 0 0 0 0 0 0 0 0 1 1 1 2 2 2 1 1 1 1 1 1 1 1 1 0 0 0 0
0 0 0 0 0 0 0 0 0 0 0 0 0 0 0 0 0 0 0 0 0 0 0 0 0 1 1 1 2 2 1 1 1 1 1 1 1 1 1 1 1 0 0 0
0 0 0 0 0 0 0 0 0 0 0 0 0 0 0 0 0 0 0 0 0 0 0 0 1 1 1 1 1 1 1 1 1 1 2 2 1 1 1 1 1 1 1 1
0 0 0 0 0 0 0 0 0 0 0 0 0 0 0 0 0 0 0 0 0 0 0 0 1 1 1 1 1 1 1 1 1 2 2 2 1 1 1 1 1 1 1 1
0 0 0 0 0 0 0 0 0 0 0 0 0 0 0 0 0 0 0 0 0 0 0 0 0 0 1 1 1 1 1 1 1 1 1 1 1 1 1 1 1 1 1 1
0 0 0 -0 0 0 0 0 0 0 0 0 0 0 0 0 0 0 0 0 0 0 0 0 0 0 0 0 0 0 0 0 0 0 1 1 1 1 1 1 1 1 1 1
0 0 0 -0 -0 0 0 0 0 0 0 0 0 0 0 0 0 0 0 0 0 0 0 0 0 0 0 0 0 0 0 0 0 0 0 0 0 0 0 0 0 1 1 1
0 0 0 -0 -0 0 0 0 0 0 0 0 0 0 0 0 0 0 0 0 0 0 0 0 0 0 0 0 0 0 0 0 0 0 0 0 0 0 0 0 0 0 0 0
0 0 0 -0 -0 0 0 0 0 0 0 0 0 0 0 0 0 0 0 0 0 0 0 0 0 0 0 0 0 0 0 0 0 0 0 0 0 0 0 0 0 0 0 0
0 0 0 -0 -0 -0 0 0 0 0 0 0 0 0 0 0 0 0 0 0 0 0 0 0 0 0 0 0 0 0 0 0 0 0 0 0 0 0 0 0 0 0 0 0
0 0 0 -0 -0 -0 0 0 0 -0 0 0 0 0 0 0 0 0 0 0 0 0 0 0 0 0 0 0 0 0 0 0 0 0 0 0 0 0 0 0 0 0 0 0
0 0 0 -0 -0 -0 0 0 0 0 0 0 0 0 0 0 0 0 0 0 0 0 0 0 0 0 0 0 0 0 0 0 0 0 0 0 0 0 0 0 0 0 0 0
0 0 -0 -0 0 0 0 0 0 0 0 0 0 0 0 0 0 0 0 0 0 0 0 0 0 0 0 0 0 0 0 0 0 0 0 0 0 0 0 0 0 0 0 0
0 0 -0 -0 0 0 0 0 0 0 0 0 0 0 0 0 0 0 0 0 0 0 0 0 0 0 0 0 0 0 0 0 0 0 0 0 0 0 0 0 0 0 0 0
0 0 0 0 0 0 0 0 0 0 0 0 0 0 0 0 0 0 0 0 0 0 0 0 0 0 0 0 0 0 0 0 0 0 0 0 0 0 0 0 0 0 0 0
0 0 0 0 0 0 0 0 0 0 0 0 0 0 0 -0 0 0 0 0 0 0 0 0 0 0 0 0 0 0 0 0 0 0 0 0 0 0 0 0 0 0 0 0
0 0 0 0 0 0 0 0 0 0 0 0 0 0 0 -0 0 0 0 0 0 0 0 0 0 0 0 0 0 0 0 0 0 0 0 0 0 0 0 0 0 0 0 0
0 0 0 0 0 0 0 0 0 0 0 0 0 0 0 0 0 0 0 0 0 0 0 0 0 0 0 0 0 0 0 0 0 0 0 0 0 0 0 0 0 0 0 0
0 0 0 0 0 0 0 0 0 0 0 0 0 0 0 0 0 0 0 0 0 0 0 0 0 0 0 0 0 0 0 0 0 0 0 0 0 0 0 0 0 0 0 0
0 0 0 0 0 0 0 0 0 0 0 0 0 0 0 0 0 0 0 0 0 0 0 0 0 0 0 0 0 0 0 0 0 0 0 0 0 0 0 0 0 0 0 0
0 0 0 0 0 0 0 0 0 0 0 0 0 0 0 0 0 0 0 0 0 0 0 0 0 0 0 0 0 0 0 0 0 0 0 0 0 0 0 0 0 0 0 0
0 0 0 0 0 0 0 0 0 0 0 0 0 0 0 0 0 0 0 0 0 0 0 0 0 0 0 0 0 0 0 0 0 0 0 0 0 0 0 0 0 0 0 0
0 0 0 0 0 0 0 0 0 0 0 0 0 0 0 0 0 0 0 0 0 0 0 0 0 0 0 0 0 0 0 0 0 0 0 0 0 0 0 0 0 0 0 0
0 0 0 0 0 0 0 0 0 0 0 0 0 0 0 0 0 0 0 0 0 0 0 0 0 0 0 0 0 0 0 0 0 0 0 0 0 0 0 0 0 0 0 0
0 0 0 0 0 0 0 0 0 0 0 0 0 0 0 0 0 0 0 0 0 0 0 0 0 0 0 0 0 0 0 0 0 0 0 0 0 0 0 0 0 0 0 0
0 0 0 0 0 0 0 0 0 0 0 0 0 0 0 0 0 0 0 0 0 0 0 0 0 0 0 0 0 0 0 0 0 0 0 0 0 0 0 0 0 0 0 0
0 0 0 0 0 0 0 0 0 0 0 0 0 0 0 0 0 0 0 0 0 0 0 0 0 0 0 0 0 0 0 0 0 0 0 0 0 0 0 0 0 0 0 0
Wind_Speed
12 11 8 7 11 13 9 6 3 5 11 15 14 13 11 11 11 9 8 7 5 3 2 2 3 3 3 4 7 9 7 5 5 5 5 5 4 4 3 4 4 5 5 6
15 12 9 7 18 14 12 14 13 14 13 17 17 14 13 14 12 10 7 5 4 3 1 1 2 3 3 3 5 7 8 7 5 4 2 4 3 4 4 4 4 3 4 5
10 12 7 9 16 16 15 18 15 15 14 18 19 17 16 16 14 12 10 9 7 7 5 3 3 4 4 4 4 3 3 3 3 2 1 2 3 4 4 4 4 3 3 4
8 10 5 6 7 13 11 15 19 17 18 20 20 12 12 15 14 14 14 12 11 9 9 10 10 9 8 8 8 8 8 7 6 5 3 2 3 3 4 4 5 5 5 5
5 6 6 6 10 11 8 6 15 18 20 21 22 13 12 16 13 13 12 11 10 10 11 11 10 10 10 10 9 9 8 8 7 7 6 5 4 4 4 4 4 4 5 5
7 6 5 5 12 13 6 0 13 18 19 20 20 13 12 15 10 10 9 9 9 9 10 10 10 9 9 9 8 7 7 7 6 6 5 5 5 4 4 4 3 2 3 4
8 5 4 5 11 9 5 6 15 16 17 17 16 13 14 13 7 6 6 7 7 7 7 7 8 8 8 7 6 5 5 4 4 4 4 4 4 4 4 3 2 2 2 2
7 6 4 9 8 6 4 9 12 15 16 16 17 17 14 11 5 5 5 5 5 5 5 6 6 6 6 5 3 3 3 2 2 3 4 4 4 4 4 3 3 2 2 1
5 4 4 4 3 3 5 10 12 14 16 17 17 16 14 11 5 3 3 4 3 3 3 4 5 5 4 3 2 2 2 2 2 3 3 4 5 4 3 3 2 2 1 1
4 5 6 5 5 6 7 10 13 14 16 16 16 16 13 10 6 1 3 3 1 0 3 3 3 4 4 3 3 1 3 2 4 5 5 5 5 5 5 5 4 3 2 1
3 6 6 6 9 9 10 11 13 14 14 14 15 14 12 10 6 1 3 3 1 2 2 1 3 4 4 4 5 3 3 4 5 4 4 4 5 5 5 6 6 4 4 3
4 7 6 9 9 10 11 12 14 14 15 14 14 13 11 9 7 3 1 2 2 2 2 2 3 4 4 3 5 4 4 4 3 2 2 2 3 4 9 8 10 12 12 8
4 7 7 8 9 10 10 12 13 13 14 14 13 11 11 9 7 4 1 1 2 4 3 1 2 3 4 2 3 3 3 3 2 2 1 0 1 2 3 4 7 11 12 11
4 6 8 8 9 10 11 12 13 13 13 13 12 11 11 10 8 6 3 2 3 3 3 2 0 2 3 2 1 2 3 2 2 1 2 2 2 2 2 2 2 3 6 8
4 6 7 8 9 10 11 12 13 12 13 13 12 11 11 11 10 8 6 3 3 4 4 3 2 2 3 1 2 2 3 3 2 2 1 1 1 2 3 3 3 2 2 2
5 6 7 9 10 10 12 13 13 13 13 13 12 13 13 12 11 9 7 5 4 5 5 5 4 3 4 2 1 1 4 3 2 3 2 1 2 2 3 2 3 2 2 2
5 6 8 9 10 10 11 12 12 12 13 13 13 13 13 12 11 9 6 4 5 5 5 4 4 4 5 3 3 2 3 4 1 2 2 2 2 2 3 3 3 3 3 3
3 5 7 8 9 10 11 11 11 12 12 12 12 12 12 12 11 10 8 5 4 5 5 4 4 6 5 4 2 1 2 4 2 0 2 3 2 2 3 3 3 4 3 2
4 5 7 8 8 8 9 10 11 11 11 11 12 12 12 11 11 11 9 7 5 5 5 4 5 5 5 4 2 0 0 2 2 1 2 2 0 1 2 3 3 3 3 2
4 5 6 7 8 8 9 9 10 10 10 11 11 11 11 11 11 11 10 7 5 4 3 4 6 5 5 6 4 2 2 2 2 2 1 1 1 2 2 3 3 3 3 2
4 5 6 6 7 8 9 9 9 9 9 10 10 10 11 11 10 10 8 7 6 2 1 5 4 4 4 7 5 2 2 3 2 1 1 1 2 2 3 3 3 3 3 3
4 4 5 6 7 7 7 8 8 8 9 9 10 10 10 9 10 9 9 6 4 1 2 3 3 5 8 9 3 2 3 3 2 2 1 2 2 2 3 3 3 3 3 3
4 4 5 6 7 8 8 8 7 7 8 9 10 10 9 8 7 7 8 5 2 2 1 2 4 12 12 6 4 3 4 3 3 2 2 2 2 3 3 4 4 3 3 4
4 5 6 6 7 7 8 7 7 6 7 8 8 9 9 7 6 6 6 6 3 2 2 3 11 13 10 3 3 4 4 4 3 2 3 2 3 4 4 4 4 4 4 4
5 6 6 6 6 5 6 7 7 6 6 6 8 8 8 7 7 7 7 7 2 3 2 5 11 12 6 3 3 4 4 4 4 3 3 3 4 4 4 4 4 4 4 4
5 4 4 5 5 4 5 4 3 4 5 6 6 6 8 7 7 7 6 5 2 3 2 4 5 6 4 3 4 4 5 5 4 3 4 4 5 4 4 4 5 4 4 4
6 5 4 4 5 4 3 3 3 4 4 5 6 7 8 7 7 7 8 5 1 2 3 4 5 5 4 3 4 4 5 5 4 4 4 4 4 4 4 5 5 5 4 5
Wind_Direction
307 297 271 260 287 295 310 337 347 29 42 15 357 337 330 323 321 319 310 297 289 276 235 178 185 198 205 177 156 153 158 184 207 225 191 181 190 174 197 210 210 201 182 175
311 302 296 28 13 17 33 37 48 47 29 356 348 355 359 354 349 345 332 329 335 331 19 116 159 162 153 144 140 149 162 186 203 224 204 177 190 191 206 208 223 214 188 177
310 309 298 54 14 15 37 39 39 37 10 354 356 6 11 4 3 5 11 19 26 27 37 48 82 100 99 102 101 119 146 161 161 180 233 212 225 226 214 208 214 219 207 189
322 337 58 69 18 6 9 37 26 11 3 359 351 344 17 14 14 18 23 27 29 36 42 50 58 64 65 59 56 49 43 36 32 25 3 329 290 268 241 226 214 210 209 203
347 349 77 37 5 354 336 349 16 359 353 352 347 348 11 10 20 21 21 24 29 37 47 49 48 55 63 62 56 48 36 26 22 18 7 353 331 309 287 267 244 215 210 209
357 4 30 355 333 320 268 258 0 348 345 346 349 356 348 347 13 26 21 25 29 34 43 50 49 51 59 59 56 48 39 33 25 20 3 354 342 329 316 298 278 249 222 207
5 21 59 354 339 347 54 330 322 328 334 339 339 328 320 331 5 38 34 28 38 40 39 45 54 57 56 54 56 55 47 39 27 18 4 9 350 342 337 329 323 311 286 243
1 12 20 15 7 19 323 304 312 322 327 329 324 320 327 333 355 39 50 43 44 46 45 45 46 63 70 52 52 73 59 30 29 46 20 14 4 357 355 356 347 328 309 283
356 11 13 8 11 330 302 309 315 319 321 323 321 323 328 331 341 55 56 66 58 53 56 64 55 45 63 53 7 80 74 12 18 64 55 32 18 8 1 3 351 325 305 272
358 17 11 35 6 339 325 312 311 313 317 319 319 320 324 324 323 95 84 79 19 58 69 62 63 59 47 21 328 349 107 57 52 53 48 45 32 18 19 16 9 7 1 349
345 13 1 359 347 333 322 316 316 317 318 318 317 318 323 323 327 47 109 122 317 36 34 23 75 75 54 13 338 349 67 75 77 73 67 64 62 39 26 45 36 27 14 19
353 1 336 325 329 327 324 322 322 322 320 320 317 317 324 328 332 344 101 137 139 113 298 338 61 80 78 22 349 14 49 51 60 87 84 101 121 101 57 59 55 53 46 41
310 327 320 324 329 331 323 324 325 322 319 320 323 325 326 325 322 323 300 202 173 172 224 289 57 80 91 60 2 9 52 47 45 44 42 88 145 144 130 81 66 56 46 43
310 324 330 337 333 333 331 332 331 329 331 331 329 328 325 325 326 326 300 230 196 189 205 233 8 95 106 91 336 5 78 84 33 26 3 8 23 48 95 120 103 76 55 46
329 333 330 334 336 339 339 338 338 338 338 336 333 331 330 327 322 315 302 265 207 210 214 217 221 152 129 138 318 16 53 52 34 14 355 12 39 66 80 91 97 98 104 74
327 329 341 340 339 341 341 340 338 338 337 333 333 332 326 317 307 295 280 256 229 228 225 216 214 169 146 169 233 106 101 78 6 336 338 27 54 81 90 93 95 92 77 57
316 333 336 334 335 338 336 334 332 333 332 331 329 326 320 315 310 305 291 249 228 239 241 225 200 154 148 183 220 216 145 136 193 300 359 46 49 68 83 86 90 85 76 53
325 323 319 322 328 329 328 329 329 328 327 327 326 324 323 320 316 312 307 283 237 230 240 236 180 148 155 188 220 248 149 146 166 74 61 54 33 60 86 89 99 102 104 84
303 309 312 315 319 319 323 324 323 323 324 327 328 324 320 315 312 311 309 303 276 248 232 212 174 161 161 162 164 176 196 122 121 107 101 103 29 74 94 95 99 102 98 82
286 301 309 315 318 320 317 317 319 322 326 328 326 325 323 321 319 316 311 304 281 258 240 179 161 174 169 148 161 207 167 125 117 120 128 136 118 102 109 108 105 101 99 91
270 292 308 316 318 314 312 315 318 324 328 328 326 324 321 318 315 311 306 300 295 277 141 141 158 167 153 140 167 207 139 123 121 126 140 138 126 119 112 104 100 97 92 84
253 284 303 310 312 313 317 315 318 328 330 328 325 324 323 321 319 313 302 288 288 122 132 160 183 151 138 139 170 172 129 125 122 114 107 109 106 110 114 111 99 92 88 84
256 282 296 305 309 312 312 316 328 331 328 325 323 324 325 316 310 304 302 312 336 150 200 200 165 142 142 152 171 151 139 139 137 134 131 125 116 108 109 108 102 98 92 86
252 274 286 290 298 306 313 323 324 322 322 320 319 325 325 319 314 308 310 315 314 192 252 173 152 151 154 179 168 152 149 144 141 142 134 123 108 101 98 100 103 101 96 92
246 262 273 290 298 300 309 311 313 321 319 319 321 330 328 319 312 309 303 302 278 192 195 160 165 161 170 201 166 152 144 139 140 133 121 115 107 107 110 112 110 106 101 94
245 254 261 270 277 279 280 288 304 310 316 317 320 328 323 317 313 310 300 289 235 201 167 145 169 176 203 200 151 141 130 128 128 134 134 128 124 121 121 121 118 113 109 102
246 248 242 246 252 253 265 283 291 299 307 311 321 319 314 317 323 325 321 313 160 186 172 162 174 188 207 158 137 141 140 145 152 149 138 130 130 133 134 127 116 111 108 108